Location: 22
(39.7117°N, 89.5929°W)
Time: 10:18:36
(UTC-05:00)

Transit 2A - Pass Details

Date: 09 August 2024
Orbit: 590 x 961 km, 66.7° (Epoch: 13 September)

Event Time Altitude Azimuth Distance (km) Brightness Sun altitude
Rises 11:15:30 0° 341° (NNW) 3,633 9.2 56.2°
Reaches altitude 10° 11:19:31 10° 6° (N) 2,702 8.8 56.8°
Maximum altitude 11:22:45 14° 37° (NE) 2,404 8.7 57.3°
Drops below altitude 10° 11:25:58 10° 68° (ENE) 2,681 9.1 57.8°
Sets 11:29:55 0° 92° (E) 3,585 9.8 58.3°
